Find Starlink 32795

NORAD ID: 63042 Int'l Des: 2025-034 Owner: SPXS Country: US Constellation: starlink operational
LEOCIRCULAR

当前视图

正在加载3D地球...

About Starlink 32795

Starlink 32795 (NORAD 63042) is a starlink constellation satellite (v2 mini) launched Feb 18, 2025 by SPXS of US. It operates in LEO, CIRCULAR orbit with a mass of 730.00 kg.

关于 Starlink 32795

正在加载描述...

即将过境

Passes for default location (London). Set your location on the main map for personalized predictions.

高度历史

Loading altitude history...

两行轨道根数

1 63042U 25034P 26193.98233429 .00009043 00000-0 27848-3 0 9998
2 63042 53.1595 34.4556 0001068 88.3907 271.7218 15.34395034 78293
Epoch: Jul 12, 2026 • Age: 28 hours

当前状态

高度 479.5 km
远地点 / 近地点 N/A
速度 7.63 km/s
星下点 -47.41°S, 8.51°W
发射日期 Feb 18, 2025
运行时间 1.3 years
类型 internet

技术详情

分类 Payload
质量 730.00 kg
干质量 700.00 kg
总质量 730.00 kg
长度 0.30 m
直径 4.10 m
跨度 29.00 m
形状 Box + pan
制造商 SPXS
平台类型 Starlink V2M
阶段状态 In Orbit
所有者/国家 SPXS/US

Most Searched